Time,TemperatureF,DewpointF,PressureIn,WindDirection,WindDirectionDegrees,WindSpeedMPH,WindSpeedGustMPH,Humidity,HourlyPrecipIn,Conditions,Clouds,dailyrainin,SoftwareType,DateUTC
2013-11-20 00:06:00,32.0,25.3,30.18,East,90,4.3,-999.0,76,-99.99,,,0.00,Acu-Link.com,2013-11-20 05:06:00,
2013-11-20 00:21:00,31.8,25.1,30.18,ESE,112,3.8,-999.0,76,-99.99,,,0.00,Acu-Link.com,2013-11-20 05:21:00,
2013-11-20 00:36:00,31.5,24.8,30.18,East,90,3.8,-999.0,76,-99.99,,,0.00,Acu-Link.com,2013-11-20 05:36:00,
2013-11-20 00:51:00,30.7,24.4,30.17,ENE,67,3.1,-999.0,77,-99.99,,,0.00,Acu-Link.com,2013-11-20 05:51:00,
2013-11-20 01:07:00,30.0,24.0,30.17,ENE,67,3.8,-999.0,78,-99.99,,,0.00,Acu-Link.com,2013-11-20 06:07:00,
2013-11-20 01:22:00,30.4,24.4,30.17,ESE,112,2.7,-999.0,78,-99.99,,,0.00,Acu-Link.com,2013-11-20 06:22:00,
2013-11-20 01:37:00,30.6,24.2,30.16,East,90,2.2,-999.0,77,-99.99,,,0.00,Acu-Link.com,2013-11-20 06:37:00,
2013-11-20 01:53:00,29.8,23.8,30.17,NNE,22,1.6,-999.0,78,-99.99,,,0.00,Acu-Link.com,2013-11-20 06:53:00,
2013-11-20 02:08:00,28.6,23.5,30.17,NE,45,2.7,-999.0,81,-99.99,,,0.00,Acu-Link.com,2013-11-20 07:08:00,
2013-11-20 02:23:00,28.8,23.7,30.16,ENE,67,2.2,-999.0,81,-99.99,,,0.00,Acu-Link.com,2013-11-20 07:23:00,
2013-11-20 02:38:00,28.8,24.0,30.16,NE,45,5.1,-999.0,82,-99.99,,,0.00,Acu-Link.com,2013-11-20 07:38:00,
2013-11-20 02:54:00,28.2,23.4,30.17,NE,45,2.2,-999.0,82,-99.99,,,0.00,Acu-Link.com,2013-11-20 07:54:00,
2013-11-20 03:09:00,27.3,23.1,30.18,NE,45,1.6,-999.0,84,-99.99,,,0.00,Acu-Link.com,2013-11-20 08:09:00,
2013-11-20 03:24:00,28.6,23.5,30.18,ENE,67,3.1,-999.0,81,-99.99,,,0.00,Acu-Link.com,2013-11-20 08:24:00,
2013-11-20 03:39:00,29.3,23.6,30.18,ESE,112,3.8,-999.0,79,-99.99,,,0.00,Acu-Link.com,2013-11-20 08:39:00,
2013-11-20 03:55:00,29.1,23.4,30.18,East,90,4.3,-999.0,79,-99.99,,,0.00,Acu-Link.com,2013-11-20 08:55:00,
2013-11-20 04:10:00,28.4,23.0,30.17,ENE,67,3.8,-999.0,80,-99.99,,,0.00,Acu-Link.com,2013-11-20 09:10:00,
2013-11-20 04:25:00,28.2,23.2,30.17,East,90,2.7,-999.0,81,-99.99,,,0.00,Acu-Link.com,2013-11-20 09:25:00,
2013-11-20 04:40:00,27.3,22.9,30.18,East,90,3.1,-999.0,83,-99.99,,,0.00,Acu-Link.com,2013-11-20 09:40:00,
2013-11-20 04:56:00,27.0,22.8,30.18,East,90,3.1,-999.0,84,-99.99,,,0.00,Acu-Link.com,2013-11-20 09:56:00,
2013-11-20 05:11:00,28.4,23.0,30.17,East,90,4.7,-999.0,80,-99.99,,,0.00,Acu-Link.com,2013-11-20 10:11:00,
2013-11-20 05:26:00,28.8,23.1,30.17,East,90,4.3,-999.0,79,-99.99,,,0.00,Acu-Link.com,2013-11-20 10:26:00,
2013-11-20 05:41:00,27.5,22.7,30.18,NE,45,4.7,-999.0,82,-99.99,,,0.00,Acu-Link.com,2013-11-20 10:41:00,
2013-11-20 05:57:00,26.6,22.4,30.19,NE,45,4.7,-999.0,84,-99.99,,,0.00,Acu-Link.com,2013-11-20 10:57:00,
2013-11-20 06:12:00,25.9,22.3,30.18,East,90,4.3,-999.0,86,-99.99,,,0.00,Acu-Link.com,2013-11-20 11:12:00,
2013-11-20 06:27:00,26.2,22.6,30.18,ENE,67,4.7,-999.0,86,-99.99,,,0.00,Acu-Link.com,2013-11-20 11:27:00,
2013-11-20 06:42:00,26.1,22.5,30.17,East,90,4.7,-999.0,86,-99.99,,,0.00,Acu-Link.com,2013-11-20 11:42:00,
2013-11-20 06:58:00,26.6,22.7,30.17,East,90,6.3,-999.0,85,-99.99,,,0.00,Acu-Link.com,2013-11-20 11:58:00,
2013-11-20 07:13:00,26.8,22.6,30.17,ENE,67,6.7,-999.0,84,-99.99,,,0.00,Acu-Link.com,2013-11-20 12:13:00,
2013-11-20 07:28:00,27.3,22.6,30.17,ENE,67,3.8,-999.0,82,-99.99,,,0.00,Acu-Link.com,2013-11-20 12:28:00,
2013-11-20 07:43:00,27.0,22.5,30.17,NE,45,2.7,-999.0,83,-99.99,,,0.00,Acu-Link.com,2013-11-20 12:43:00,
2013-11-20 07:59:00,27.3,22.6,30.17,ENE,67,3.1,-999.0,82,-99.99,,,0.00,Acu-Link.com,2013-11-20 12:59:00,
2013-11-20 08:14:00,28.4,23.3,30.17,East,90,4.7,-999.0,81,-99.99,,,0.00,Acu-Link.com,2013-11-20 13:14:00,
2013-11-20 08:29:00,29.8,23.8,30.17,ENE,67,3.8,-999.0,78,-99.99,,,0.00,Acu-Link.com,2013-11-20 13:29:00,
2013-11-20 08:45:00,30.7,23.8,30.18,ESE,112,7.4,-999.0,75,-99.99,,,0.00,Acu-Link.com,2013-11-20 13:45:00,
2013-11-20 09:00:00,31.5,24.1,30.18,SSE,157,4.3,-999.0,74,-99.99,,,0.00,Acu-Link.com,2013-11-20 14:00:00,
2013-11-20 09:15:00,32.2,24.5,30.18,East,90,5.8,-999.0,73,-99.99,,,0.00,Acu-Link.com,2013-11-20 14:15:00,
2013-11-20 09:31:00,32.7,25.0,30.18,SE,135,5.1,-999.0,73,-99.99,,,0.00,Acu-Link.com,2013-11-20 14:31:00,
2013-11-20 09:46:00,33.8,25.7,30.18,ESE,112,4.3,-999.0,72,-99.99,,,0.00,Acu-Link.com,2013-11-20 14:46:00,
2013-11-20 10:01:00,34.7,25.2,30.18,SE,135,6.3,-999.0,68,-99.99,,,0.00,Acu-Link.com,2013-11-20 15:01:00,
2013-11-20 10:16:00,35.4,25.6,30.18,ESE,112,4.7,-999.0,67,-99.99,,,0.00,Acu-Link.com,2013-11-20 15:16:00,
2013-11-20 10:31:00,36.3,26.4,30.18,ESE,112,6.3,-999.0,67,-99.99,,,0.00,Acu-Link.com,2013-11-20 15:31:00,
2013-11-20 10:46:00,37.2,26.6,30.17,South,180,6.7,-999.0,65,-99.99,,,0.00,Acu-Link.com,2013-11-20 15:46:00,
2013-11-20 11:01:00,38.7,26.8,30.17,ESE,112,4.3,-999.0,62,-99.99,,,0.00,Acu-Link.com,2013-11-20 16:01:00,
2013-11-20 11:17:00,39.7,27.8,30.17,SE,135,5.1,-999.0,62,-99.99,,,0.00,Acu-Link.com,2013-11-20 16:17:00,
2013-11-20 11:32:00,40.8,28.4,30.17,South,180,3.8,-999.0,61,-99.99,,,0.00,Acu-Link.com,2013-11-20 16:32:00,
2013-11-20 11:47:00,41.5,29.5,30.16,SW,225,2.7,-999.0,62,-99.99,,,0.00,Acu-Link.com,2013-11-20 16:47:00,
2013-11-20 12:02:00,42.6,29.7,30.15,SSE,157,5.1,-999.0,60,-99.99,,,0.00,Acu-Link.com,2013-11-20 17:02:00,
2013-11-20 12:17:00,42.8,29.9,30.14,ESE,112,4.7,-999.0,60,-99.99,,,0.00,Acu-Link.com,2013-11-20 17:17:00,
2013-11-20 12:32:00,44.4,30.6,30.13,South,180,6.3,-999.0,58,-99.99,,,0.00,Acu-Link.com,2013-11-20 17:32:00,
2013-11-20 12:48:00,45.9,30.6,30.13,South,180,4.3,-999.0,55,-99.99,,,0.00,Acu-Link.com,2013-11-20 17:48:00,
2013-11-20 13:03:00,46.4,30.7,30.12,SSE,157,9.4,-999.0,54,-99.99,,,0.00,Acu-Link.com,2013-11-20 18:03:00,
2013-11-20 13:18:00,47.3,31.5,30.11,South,180,6.3,-999.0,54,-99.99,,,0.00,Acu-Link.com,2013-11-20 18:18:00,
2013-11-20 13:34:00,48.2,31.9,30.11,West,270,4.7,-999.0,53,-99.99,,,0.00,Acu-Link.com,2013-11-20 18:34:00,
2013-11-20 13:49:00,48.6,31.7,30.10,South,180,5.8,-999.0,52,-99.99,,,0.00,Acu-Link.com,2013-11-20 18:49:00,
2013-11-20 14:04:00,49.8,32.9,30.10,WSW,247,5.1,-999.0,52,-99.99,,,0.00,Acu-Link.com,2013-11-20 19:04:00,
2013-11-20 14:19:00,50.4,31.9,30.09,South,180,9.4,-999.0,49,-99.99,,,0.00,Acu-Link.com,2013-11-20 19:19:00,
2013-11-20 14:35:00,50.9,31.9,30.09,West,270,7.4,-999.0,48,-99.99,,,0.00,Acu-Link.com,2013-11-20 19:35:00,
2013-11-20 14:50:00,50.4,31.9,30.08,South,180,8.3,-999.0,49,-99.99,,,0.00,Acu-Link.com,2013-11-20 19:50:00,
2013-11-20 15:05:00,51.3,32.8,30.08,West,270,3.1,-999.0,49,-99.99,,,0.00,Acu-Link.com,2013-11-20 20:05:00,
2013-11-20 15:20:00,52.7,32.5,30.08,South,180,6.3,-999.0,46,-99.99,,,0.00,Acu-Link.com,2013-11-20 20:20:00,
2013-11-20 15:36:00,53.1,32.3,30.08,WSW,247,8.9,-999.0,45,-99.99,,,0.00,Acu-Link.com,2013-11-20 20:36:00,
2013-11-20 15:51:00,54.1,33.3,30.08,SSE,157,6.3,-999.0,45,-99.99,,,0.00,Acu-Link.com,2013-11-20 20:51:00,
2013-11-20 16:06:00,52.9,32.7,30.08,South,180,4.7,-999.0,46,-99.99,,,0.00,Acu-Link.com,2013-11-20 21:06:00,
2013-11-20 16:22:00,55.0,33.5,30.08,West,270,4.3,-999.0,44,-99.99,,,0.00,Acu-Link.com,2013-11-20 21:22:00,
2013-11-20 16:37:00,51.4,32.4,30.08,SE,135,2.7,-999.0,48,-99.99,,,0.00,Acu-Link.com,2013-11-20 21:37:00,
2013-11-20 16:52:00,50.2,32.3,30.08,South,180,2.7,-999.0,50,-99.99,,,0.00,Acu-Link.com,2013-11-20 21:52:00,
2013-11-20 17:07:00,48.9,32.1,30.08,SSE,157,2.7,-999.0,52,-99.99,,,0.00,Acu-Link.com,2013-11-20 22:07:00,
2013-11-20 17:22:00,48.0,31.7,30.08,ESE,112,3.1,-999.0,53,-99.99,,,0.00,Acu-Link.com,2013-11-20 22:22:00,
2013-11-20 17:38:00,47.1,31.8,30.08,SE,135,3.8,-999.0,55,-99.99,,,0.00,Acu-Link.com,2013-11-20 22:38:00,
2013-11-20 17:53:00,46.6,31.7,30.09,SSE,157,1.6,-999.0,56,-99.99,,,0.00,Acu-Link.com,2013-11-20 22:53:00,
2013-11-20 18:08:00,46.2,31.8,30.09,SSE,157,4.3,-999.0,57,-99.99,,,0.00,Acu-Link.com,2013-11-20 23:08:00,
2013-11-20 18:23:00,46.0,32.1,30.09,South,180,3.1,-999.0,58,-99.99,,,0.00,Acu-Link.com,2013-11-20 23:23:00,
2013-11-20 18:39:00,46.0,32.5,30.09,South,180,2.7,-999.0,59,-99.99,,,0.00,Acu-Link.com,2013-11-20 23:39:00,
2013-11-20 18:54:00,45.7,32.2,30.09,South,180,2.2,-999.0,59,-99.99,,,0.00,Acu-Link.com,2013-11-20 23:54:00,
2013-11-20 19:09:00,45.1,32.1,30.09,South,180,2.7,-999.0,60,-99.99,,,0.00,Acu-Link.com,2013-11-21 00:09:00,
2013-11-20 19:25:00,44.8,32.2,30.09,East,90,0.0,-999.0,61,-99.99,,,0.00,Acu-Link.com,2013-11-21 00:25:00,
2013-11-20 19:40:00,43.7,31.5,30.09,ESE,112,3.1,-999.0,62,-99.99,,,0.00,Acu-Link.com,2013-11-21 00:40:00,
2013-11-20 19:55:00,44.4,32.2,30.09,SSE,157,5.1,-999.0,62,-99.99,,,0.00,Acu-Link.com,2013-11-21 00:55:00,
2013-11-20 20:10:00,43.9,31.7,30.09,SSE,157,2.2,-999.0,62,-99.99,,,0.00,Acu-Link.com,2013-11-21 01:10:00,
2013-11-20 20:25:00,43.3,31.6,30.09,WNW,292,2.2,-999.0,63,-99.99,,,0.00,Acu-Link.com,2013-11-21 01:25:00,
2013-11-20 20:41:00,43.2,31.8,30.10,SE,135,3.1,-999.0,64,-99.99,,,0.00,Acu-Link.com,2013-11-21 01:41:00,
2013-11-20 20:56:00,44.4,31.8,30.09,SSW,202,2.2,-999.0,61,-99.99,,,0.00,Acu-Link.com,2013-11-21 01:56:00,
2013-11-20 21:11:00,44.1,31.5,30.10,SSE,157,3.1,-999.0,61,-99.99,,,0.00,Acu-Link.com,2013-11-21 02:11:00,
2013-11-20 21:26:00,44.1,31.5,30.09,SSE,157,3.8,-999.0,61,-99.99,,,0.00,Acu-Link.com,2013-11-21 02:26:00,
2013-11-20 21:41:00,43.5,31.4,30.09,SSW,202,1.1,-999.0,62,-99.99,,,0.00,Acu-Link.com,2013-11-21 02:41:00,
2013-11-20 21:57:00,43.0,31.3,30.09,SSW,202,2.2,-999.0,63,-99.99,,,0.00,Acu-Link.com,2013-11-21 02:57:00,
2013-11-20 22:12:00,42.8,31.1,30.09,SSW,202,2.2,-999.0,63,-99.99,,,0.00,Acu-Link.com,2013-11-21 03:12:00,
2013-11-20 22:27:00,43.2,31.4,30.09,SSW,202,3.1,-999.0,63,-99.99,,,0.00,Acu-Link.com,2013-11-21 03:27:00,
2013-11-20 22:42:00,43.3,31.6,30.08,SSE,157,3.1,-999.0,63,-99.99,,,0.00,Acu-Link.com,2013-11-21 03:42:00,
2013-11-20 22:57:00,43.3,31.2,30.09,West,270,2.7,-999.0,62,-99.99,,,0.00,Acu-Link.com,2013-11-21 03:57:00,
2013-11-20 23:13:00,42.8,31.1,30.09,SSW,202,1.6,-999.0,63,-99.99,,,0.00,Acu-Link.com,2013-11-21 04:13:00,
2013-11-20 23:28:00,42.4,31.1,30.10,SW,225,2.2,-999.0,64,-99.99,,,0.00,Acu-Link.com,2013-11-21 04:28:00,
2013-11-20 23:43:00,42.3,31.3,30.09,West,270,2.2,-999.0,65,-99.99,,,0.00,Acu-Link.com,2013-11-21 04:43:00,
2013-11-20 23:58:00,42.1,31.2,30.09,West,270,1.6,-999.0,65,-99.99,,,0.00,Acu-Link.com,2013-11-21 04:58:00,